Theta_e
305 312 316 317 320 313 316 318 315 318 322 316 318 319 320 322 326 325 310 310 312 312 328 339 341 343 343 342 340 338 338 340 340 337 335 336 336 336 335 334 330 332 337 337 336 335 334 334 326
311 318 321 318 313 316 313 312 314 313 313 312 313 316 318 321 313 309 309 307 307 310 312 328 340 342 343 341 341 338 337 338 339 340 335 335 337 335 338 334 330 333 337 337 334 333 334 331 330
310 313 318 317 312 309 309 313 312 312 310 311 311 311 317 317 309 307 306 306 307 307 308 313 328 340 341 341 339 340 338 337 338 339 337 336 336 337 337 336 332 333 336 337 335 335 336 331 329
309 314 308 313 313 311 310 310 310 310 310 309 310 311 313 308 308 304 305 305 306 306 307 309 311 326 339 340 339 338 339 337 336 337 337 336 336 337 336 336 333 333 335 337 336 336 334 330 331
310 308 311 309 309 309 305 306 306 307 306 306 307 307 311 304 303 303 304 304 304 306 307 307 308 310 319 336 339 338 336 335 336 335 335 335 334 335 335 336 335 334 334 336 335 335 334 331 327
307 303 306 308 308 306 305 303 305 303 303 304 303 304 307 303 303 304 304 304 306 306 307 307 307 307 308 316 331 339 338 335 334 336 336 334 335 335 334 336 336 334 334 334 335 332 333 332 327
307 305 305 307 306 306 306 303 302 303 301 302 303 304 306 301 304 304 304 304 305 306 306 306 306 306 306 305 310 326 338 338 333 334 336 336 335 335 334 335 336 335 334 333 334 333 330 329 327
304 304 306 304 303 306 303 301 300 299 301 300 302 302 300 300 304 304 304 304 305 305 305 305 306 305 305 306 304 308 320 336 336 334 335 336 336 335 334 334 335 335 334 333 333 333 330 328 327
303 301 302 301 301 302 298 299 298 299 300 299 300 300 301 304 304 304 304 304 303 303 303 304 304 305 305 306 305 304 308 314 334 335 334 335 336 335 335 334 334 335 334 332 330 332 332 328 326
302 300 302 299 299 299 298 298 298 300 298 300 300 302 303 303 304 303 302 301 302 301 301 302 304 304 304 305 305 305 308 309 315 332 336 333 334 335 335 335 335 334 334 332 331 331 331 328 326
301 301 300 300 301 300 300 300 300 301 301 301 300 301 301 302 303 302 301 300 300 299 299 299 300 301 302 304 305 306 305 311 311 319 333 336 334 334 334 335 335 334 334 332 332 330 329 327 326
304 302 302 301 303 302 301 301 301 301 300 300 299 301 302 301 301 301 300 299 298 298 298 298 298 298 298 300 304 305 305 305 313 312 321 334 336 335 332 333 334 334 334 333 332 331 330 328 325
304 304 304 304 303 303 302 301 301 301 299 299 302 302 301 301 300 298 298 298 298 297 297 296 296 296 297 299 301 303 305 305 305 310 314 320 333 335 334 332 334 334 334 333 332 331 330 327 324
302 303 303 303 303 303 303 301 301 300 300 300 301 301 301 299 298 298 298 298 297 297 296 296 296 296 297 298 298 300 303 305 305 305 306 308 317 330 334 334 333 334 334 332 332 331 330 327 324
303 303 303 304 304 303 301 301 300 299 300 301 301 301 299 298 298 298 298 298 297 296 295 295 295 295 296 296 297 298 300 303 304 305 307 310 308 312 326 332 334 333 333 333 332 330 329 327 324
304 302 302 304 303 303 301 301 301 300 300 300 299 299 298 298 298 298 298 296 295 294 294 294 294 294 295 296 297 298 299 300 303 304 305 305 306 307 310 318 328 329 333 332 330 329 327 326 325
300 296 303 302 303 303 302 302 301 300 300 299 298 297 298 297 297 297 296 295 294 293 293 293 293 294 294 294 296 298 299 301 302 303 305 306 310 310 310 315 322 326 330 332 330 328 327 326 324
296 297 302 302 303 303 301 300 301 299 299 298 297 298 296 296 296 296 295 294 293 293 293 292 293 293 294 295 296 297 300 301 302 302 304 306 307 307 308 314 322 325 329 329 328 328 327 326 325
302 302 301 302 303 301 301 300 300 300 298 297 297 296 296 295 295 294 293 293 292 292 292 291 291 292 293 294 294 295 297 299 302 303 304 304 307 307 309 314 320 325 328 329 329 329 328 325 323
301 296 297 300 301 300 300 300 300 300 297 297 297 297 294 294 293 293 292 292 291 291 291 291 291 292 294 293 294 296 296 298 300 303 303 306 307 308 309 312 320 323 326 328 329 328 326 324 323
300 297 297 299 299 298 299 297 301 300 298 298 298 295 293 293 292 291 291 290 290 289 290 290 291 291 292 293 294 296 298 299 301 302 303 305 308 308 311 311 314 321 326 328 329 328 327 325 322
296 301 300 300 293 294 298 295 299 300 300 299 295 293 292 290 291 290 290 289 289 289 289 289 290 291 292 292 294 296 298 300 301 302 304 305 311 311 311 314 314 315 321 325 327 328 327 326 323
298 300 300 300 289 295 294 293 298 300 300 296 294 294 292 290 289 289 289 288 288 288 288 289 290 290 291 291 293 296 298 300 301 303 303 306 308 309 310 316 316 317 320 324 325 326 327 326 324
300 297 296 295 289 291 291 292 297 297 299 296 294 293 292 290 290 289 288 287 287 287 287 288 288 289 289 290 292 295 298 303 302 303 304 308 310 310 312 313 314 317 319 321 324 326 325 325 325
295 289 287 290 291 296 286 295 297 297 295 295 293 292 291 290 289 288 287 287 286 286 286 287 288 288 289 290 292 293 298 303 302 302 304 307 309 311 312 312 311 314 318 320 323 324 327 326 326
297 291 289 288 293 293 286 294 296 296 294 294 292 291 291 289 288 288 287 286 286 285 286 286 287 287 288 290 291 292 297 300 302 304 306 308 309 309 310 311 313 313 312 315 319 322 324 325 325
295 293 295 287 283 292 290 292 296 295 288 291 291 291 290 289 288 287 287 286 285 285 285 286 286 287 288 288 290 291 294 296 298 300 302 303 306 309 310 308 308 309 311 312 313 319 323 324 324
293 295 290 286 290 290 290 287 296 290 287 287 290 288 287 286 286 287 286 285 285 285 284 284 286 286 287 288 289 291 292 295 297 298 299 300 303 304 306 307 307 309 310 311 312 313 322 323 323
290 290 289 288 293 290 290 293 288 288 285 285 287 287 285 284 285 286 286 285 284 283 283 283 284 285 286 287 288 290 291 294 295 297 297 298 299 301 304 305 305 307 308 310 313 314 321 322 321
293 291 294 290 286 292 295 297 284 284 284 283 286 285 285 280 284 286 286 285 284 283 282 282 283 284 285 285 287 289 290 292 294 295 296 297 298 300 302 304 304 305 305 307 312 312 321 320 320
Wind_Speed
7 2 5 1 3 4 3 6 3 6 4 2 3 4 4 4 3 2 8 20 18 22 18 13 2 7 11 11 13 11 12 15 15 14 13 11 12 14 17 16 14 15 13 13 13 13 12 12 13
10 6 2 1 4 2 5 4 8 4 1 6 7 5 6 4 4 4 5 18 20 20 22 16 9 7 9 11 12 13 13 14 16 15 14 14 14 15 17 17 17 14 14 13 14 15 14 13 14
8 4 3 3 3 4 3 2 4 3 5 4 5 5 4 3 5 5 12 16 16 19 22 22 16 6 9 10 12 14 15 15 17 16 16 15 17 17 18 18 18 17 16 15 16 16 16 16 16
6 5 4 4 6 6 4 3 4 4 7 8 2 6 4 12 5 10 11 14 17 19 20 21 20 16 6 12 11 15 16 16 18 18 19 18 17 18 19 20 20 19 18 18 19 18 17 17 20
1 3 1 2 5 1 6 4 6 6 5 7 4 3 4 12 17 16 16 17 19 17 18 20 21 19 16 8 14 14 17 18 19 19 20 21 20 20 21 22 21 21 19 16 17 20 20 20 21
3 3 3 3 4 6 3 7 3 5 5 5 6 3 1 12 18 16 18 19 16 17 16 17 21 21 19 17 12 14 17 18 20 20 20 21 22 23 23 24 23 22 20 19 18 18 22 23 22
4 3 3 3 4 4 3 2 5 3 5 4 2 1 1 13 18 18 19 18 18 17 18 19 21 23 22 18 16 14 16 20 21 22 22 21 21 23 23 24 25 25 22 21 20 21 22 24 22
3 3 3 3 5 3 5 4 1 6 2 3 2 2 5 6 17 17 18 18 19 21 22 22 22 25 26 24 19 15 16 17 23 24 24 24 23 24 25 25 25 27 25 24 23 24 24 24 23
3 4 1 4 5 4 6 6 6 4 2 3 2 3 5 16 21 20 18 21 22 24 27 26 26 25 26 27 25 19 16 16 17 26 27 26 27 27 27 27 28 27 27 25 25 26 26 25 25
4 4 1 3 1 2 6 7 7 5 8 3 5 9 16 14 16 15 18 20 24 26 26 25 25 26 25 25 27 25 19 18 17 15 28 29 30 30 29 29 30 29 29 27 28 29 27 27 26
4 3 2 2 3 3 5 7 6 5 6 3 6 6 9 12 13 15 16 16 17 21 24 25 28 29 28 26 27 27 24 20 19 18 17 31 32 32 32 32 32 32 31 30 31 30 29 30 29
3 4 3 3 3 4 5 5 8 6 8 9 7 2 4 6 7 11 12 12 15 19 23 25 26 29 29 28 26 26 28 24 22 21 19 17 33 35 35 36 37 36 35 33 34 34 33 32 30
3 3 5 4 6 4 6 6 7 13 12 11 4 5 5 3 6 10 11 11 14 18 22 26 28 30 31 30 28 27 28 28 26 24 21 19 19 35 36 36 38 38 40 38 39 38 36 35 33
2 4 7 6 4 3 4 5 2 7 6 9 6 6 5 6 6 10 13 15 17 23 28 28 28 26 27 31 32 32 29 27 28 28 28 23 22 22 33 35 36 40 40 41 39 43 40 38 34
2 4 7 4 4 3 2 8 6 9 8 7 7 7 6 5 9 9 14 16 22 24 24 27 27 27 27 31 34 32 33 31 29 29 28 27 25 24 26 23 29 41 40 41 40 39 38 38 37
4 4 5 3 4 2 6 8 10 9 6 8 8 5 4 5 8 11 16 18 26 26 28 30 30 31 31 29 29 32 32 33 33 31 32 32 30 28 25 25 24 36 29 42 36 36 36 38 40
7 1 3 9 6 4 3 13 12 7 8 6 4 4 4 6 8 15 19 23 25 29 29 27 27 29 30 33 30 29 31 33 32 34 32 32 28 25 24 24 21 17 32 25 35 33 37 36 34
3 2 3 5 5 9 11 17 23 7 6 5 5 3 5 5 5 18 21 26 28 28 27 28 25 26 28 24 28 26 25 30 32 35 35 33 33 31 27 25 23 22 28 28 22 30 26 29 30
3 3 6 7 8 6 13 19 22 13 5 6 4 1 4 6 9 17 22 25 24 26 29 25 26 27 28 24 26 27 24 26 28 30 31 33 32 30 26 25 25 26 27 24 35 36 34 22 24
3 2 6 6 3 7 11 16 17 8 6 6 5 3 6 7 7 13 20 22 26 25 26 27 27 25 24 26 28 26 26 29 31 30 29 32 33 30 26 26 26 25 28 30 31 32 26 24 37
3 3 3 7 5 5 6 8 5 3 5 5 2 3 5 8 9 12 18 19 23 24 25 25 25 28 25 28 29 27 26 26 27 29 28 28 32 30 25 26 26 25 29 27 32 36 29 23 30
2 1 4 8 5 2 5 5 6 3 5 3 4 7 8 7 9 9 17 21 23 24 25 26 24 26 25 28 28 26 26 24 25 26 25 26 22 24 23 21 24 27 26 27 31 35 33 26 22
7 7 10 6 3 4 6 3 7 1 4 1 6 9 9 7 9 12 17 23 26 25 26 25 22 25 26 29 27 27 27 31 28 27 28 28 23 21 22 19 17 22 26 29 28 35 34 35 32
5 5 6 4 4 2 4 4 7 4 3 2 6 8 10 9 11 12 19 23 24 26 26 25 24 23 25 25 27 27 34 26 22 22 22 21 18 22 19 15 16 16 22 28 30 33 38 38 39
8 6 4 6 4 5 3 1 10 3 4 3 7 9 8 11 11 12 13 18 22 25 26 27 23 27 24 23 25 26 28 17 24 26 23 20 13 14 15 16 18 15 15 22 27 32 32 35 35
3 5 5 4 3 6 2 6 6 5 5 3 6 7 8 12 11 13 15 20 22 24 23 26 25 26 25 24 24 25 15 12 3 2 2 2 6 11 8 11 14 16 21 14 20 24 30 35 39
3 2 3 2 1 2 4 8 7 3 4 5 8 9 10 11 11 11 16 20 23 24 24 25 28 26 26 27 24 22 15 12 13 10 8 9 6 4 6 10 12 17 19 23 19 23 29 30 36
5 2 3 3 3 6 6 6 8 6 7 6 8 9 10 9 8 9 12 20 23 24 24 25 24 25 27 26 24 20 14 13 12 12 10 9 8 8 8 10 11 14 16 18 22 20 32 32 28
1 2 2 3 4 4 4 7 7 8 7 6 8 10 9 9 7 7 11 18 20 22 23 24 24 24 23 24 24 21 16 12 11 10 11 8 8 9 8 10 10 12 14 15 20 25 31 29 26
5 7 5 4 6 4 3 10 4 7 7 7 9 10 8 7 6 7 12 17 18 20 22 23 24 23 22 23 22 19 16 13 10 8 9 8 8 6 6 7 8 9 11 11 13 15 31 31 29
Wind_Direction
350 15 355 314 74 75 246 257 254 7 43 315 288 70 106 33 31 165 77 22 13 10 8 8 303 233 232 224 219 213 208 203 200 196 191 186 183 182 180 180 178 170 170 167 166 166 168 168 165
5 31 8 56 95 109 266 307 99 68 357 354 16 360 43 82 42 93 41 12 13 9 8 8 355 244 234 240 231 220 218 210 207 206 198 193 190 193 190 188 185 182 172 176 172 169 169 177 167
333 323 78 107 139 197 215 28 97 112 83 69 29 35 41 33 28 88 29 15 12 11 5 5 1 341 243 240 247 234 225 221 217 212 212 203 199 200 201 198 193 188 178 182 178 178 178 177 173
329 20 12 110 218 269 62 334 25 6 24 48 87 50 55 36 74 53 26 14 8 8 358 0 4 357 290 241 244 252 238 227 226 221 216 216 211 207 206 207 201 195 192 187 185 185 185 180 170
275 70 63 201 235 178 38 5 16 20 39 31 22 348 96 71 62 35 25 12 5 5 355 349 352 359 355 331 249 242 248 238 230 230 226 222 221 213 211 211 208 201 202 199 189 187 189 185 179
14 96 64 232 243 105 59 9 83 26 11 4 45 28 149 61 26 36 22 12 17 11 1 352 346 349 351 344 330 250 242 247 243 236 231 232 228 219 215 214 209 207 205 202 191 185 184 187 186
110 88 215 298 263 75 6 339 65 45 356 35 185 353 22 51 40 20 15 21 17 14 13 6 354 344 344 344 334 322 252 241 241 245 239 234 232 227 223 219 214 211 210 204 204 201 192 193 193
93 100 341 4 324 86 14 16 36 62 312 292 126 156 289 51 33 18 7 13 13 11 7 4 356 347 337 337 333 321 315 258 237 237 242 239 235 230 229 226 220 217 213 208 208 209 199 197 198
22 65 20 346 14 285 359 19 349 296 274 346 274 302 340 9 16 25 23 16 6 356 355 352 347 344 336 332 332 322 312 308 267 237 235 239 237 233 230 229 225 223 220 216 210 206 204 202 204
67 92 140 22 45 344 324 20 323 338 320 291 303 333 354 15 24 29 33 15 358 353 351 345 342 341 340 333 327 323 311 307 294 275 240 236 237 237 234 230 229 228 223 221 212 207 206 203 202
346 108 351 38 49 24 329 334 337 348 315 214 310 306 356 9 12 43 24 10 358 350 340 334 326 322 322 323 326 317 314 307 299 280 281 241 238 238 236 234 231 227 224 220 214 210 207 203 204
93 83 52 300 343 335 313 290 313 235 245 271 287 303 349 339 7 36 23 11 354 340 333 333 331 327 322 312 309 312 307 304 300 290 270 267 241 238 237 234 234 230 224 220 214 213 210 207 206
50 326 315 299 311 267 284 267 261 281 268 280 262 313 303 318 60 30 10 357 348 338 330 327 326 324 320 318 309 304 300 294 290 289 283 274 264 236 234 233 230 228 224 220 212 213 213 210 207
274 278 269 274 229 232 268 270 68 274 266 296 272 260 294 85 44 12 358 342 338 329 324 322 321 318 314 308 304 297 294 297 287 281 279 278 270 269 227 230 229 227 219 214 207 209 212 211 208
265 329 329 222 211 231 76 316 209 264 275 255 263 272 81 46 22 354 336 330 331 333 329 323 322 315 307 303 303 300 291 285 288 285 277 276 272 271 265 249 232 223 212 211 203 206 207 207 209
342 38 8 299 175 223 88 271 269 287 268 275 279 89 49 9 350 335 329 336 331 327 324 322 320 313 309 306 302 299 293 284 279 279 280 273 272 270 269 272 273 251 207 208 195 195 195 202 208
10 260 308 323 324 358 190 292 269 265 296 292 100 84 34 355 333 335 334 332 330 327 325 324 322 315 310 307 303 296 292 287 282 276 274 273 266 269 270 265 261 246 243 230 196 190 196 196 203
264 345 284 272 287 321 290 275 286 284 264 181 143 77 25 330 315 327 332 331 326 320 319 320 318 313 313 310 306 304 301 287 282 273 267 269 265 266 265 262 260 252 237 224 209 215 206 199 203
251 251 259 260 269 329 277 284 284 293 167 166 140 39 335 315 306 336 331 325 322 323 320 320 317 310 305 303 305 298 291 297 283 280 273 265 263 261 255 255 252 247 230 217 211 204 194 193 191
242 256 283 290 343 324 296 286 285 249 204 174 147 349 321 317 323 323 328 325 323 321 321 316 312 308 303 305 297 285 283 282 283 279 274 268 255 254 252 245 248 247 240 226 203 190 188 185 186
285 192 279 270 333 270 292 294 324 29 107 138 151 29 326 326 318 331 324 319 315 315 311 309 308 308 298 302 297 286 279 278 274 272 270 269 250 250 247 246 248 247 243 213 203 193 198 197 187
299 244 309 312 34 274 63 277 297 199 182 157 32 346 324 300 335 316 317 316 313 310 310 306 305 303 301 303 297 284 276 271 267 270 272 265 243 231 244 246 243 250 249 230 212 205 192 179 176
242 325 292 289 150 16 326 61 269 186 225 201 351 330 318 323 315 320 316 312 311 313 312 306 305 305 300 301 298 288 278 265 258 261 264 266 246 245 244 235 245 247 248 238 221 207 194 189 181
302 329 22 69 101 4 245 114 280 233 202 342 312 313 305 306 320 309 311 314 315 316 310 307 306 303 303 301 304 296 289 249 239 252 257 257 241 228 230 242 243 259 250 243 227 220 207 202 202
37 43 354 355 6 227 243 347 244 213 131 190 281 291 299 314 311 315 322 323 322 318 315 315 313 307 304 303 309 303 305 258 239 250 264 243 228 226 235 249 255 261 258 249 235 219 204 198 197
45 123 141 254 285 271 18 227 252 181 156 221 276 279 305 318 320 324 323 328 324 318 317 318 312 309 308 310 312 305 322 351 16 215 356 204 236 235 229 246 252 260 262 266 253 236 214 206 201
267 71 163 111 136 4 264 288 296 181 314 323 297 342 314 315 316 317 324 330 324 321 322 319 316 313 313 313 312 309 329 347 353 358 22 14 22 2 255 261 270 264 261 257 262 250 222 210 201
143 168 32 11 344 303 287 280 243 266 264 305 336 300 288 286 301 326 329 331 327 324 323 322 320 320 318 316 316 314 326 341 335 341 342 336 323 310 285 279 282 266 258 259 254 270 214 203 194
23 345 12 129 154 202 294 265 226 222 207 239 277 270 273 280 302 322 327 326 326 325 328 327 326 321 321 324 321 321 328 332 338 323 295 302 292 273 280 274 282 269 252 260 261 275 212 198 195
165 190 161 132 270 228 200 268 237 194 204 206 258 268 281 266 296 316 330 333 328 331 330 328 329 327 326 324 326 327 325 328 327 303 294 290 279 279 276 269 279 276 255 254 249 245 188 188 184